TimeCST,TemperatureF,Dew PointF,Humidity,Sea Level PressureIn,VisibilityMPH,Wind Direction,Wind SpeedMPH,Gust SpeedMPH,PrecipitationIn,Events,Conditions,WindDirDegrees,DateUTC
12:15 AM,31.5,28.4,88,30.07,10.0,WSW,11.5,-,N/A,,Clear,250,2013-01-09 06:15:00
12:35 AM,31.8,28.8,88,30.09,10.0,WSW,15.0,-,N/A,,Clear,250,2013-01-09 06:35:00
12:55 AM,31.1,28.2,89,30.09,10.0,WSW,13.8,-,N/A,,Clear,250,2013-01-09 06:55:00
1:15 AM,31.6,28.4,88,30.10,10.0,WSW,13.8,-,N/A,,Clear,250,2013-01-09 07:15:00
1:35 AM,31.1,28.2,89,30.11,10.0,WSW,13.8,-,N/A,,Clear,250,2013-01-09 07:35:00
1:55 AM,30.4,27.7,90,30.13,10.0,West,12.7,-,N/A,,Clear,260,2013-01-09 07:55:00
2:15 AM,30.6,27.5,88,30.15,10.0,West,12.7,-,N/A,,Clear,260,2013-01-09 08:15:00
2:35 AM,30.4,27.7,90,30.15,10.0,WSW,13.8,-,N/A,,Clear,250,2013-01-09 08:35:00
2:55 AM,30.0,27.1,89,30.16,10.0,WSW,15.0,-,N/A,,Clear,240,2013-01-09 08:55:00
3:15 AM,31.5,28.2,88,30.16,10.0,WSW,16.1,-,N/A,,Clear,240,2013-01-09 09:15:00
3:35 AM,32.0,28.6,87,30.18,10.0,West,17.3,-,N/A,,Clear,260,2013-01-09 09:35:00
3:55 AM,32.9,29.3,87,30.19,10.0,West,19.6,-,N/A,,Clear,260,2013-01-09 09:55:00
4:15 AM,31.8,28.4,87,30.20,10.0,West,15.0,-,N/A,,Clear,270,2013-01-09 10:15:00
4:35 AM,30.9,27.9,88,30.21,10.0,West,16.1,-,N/A,,Clear,270,2013-01-09 10:35:00
4:55 AM,30.4,27.5,89,30.21,10.0,West,17.3,-,N/A,,Clear,280,2013-01-09 10:55:00
5:15 AM,30.2,27.5,90,30.21,10.0,West,15.0,-,N/A,,Clear,280,2013-01-09 11:15:00
5:35 AM,29.8,27.1,90,30.21,10.0,West,16.1,-,N/A,,Clear,270,2013-01-09 11:35:00
5:55 AM,29.1,26.6,90,30.23,10.0,West,11.5,-,N/A,,Clear,270,2013-01-09 11:55:00
6:15 AM,28.0,25.2,89,30.21,10.0,West,4.6,-,N/A,,Clear,260,2013-01-09 12:15:00
6:35 AM,26.4,24.8,94,30.23,10.0,West,10.4,-,N/A,,Clear,270,2013-01-09 12:35:00
6:55 AM,26.4,24.6,93,30.24,10.0,West,5.8,-,N/A,,Clear,270,2013-01-09 12:55:00
7:15 AM,26.6,24.6,92,30.24,10.0,West,9.2,-,N/A,,Clear,280,2013-01-09 13:15:00
7:35 AM,24.6,22.8,93,30.24,10.0,West,13.8,-,N/A,,Clear,270,2013-01-09 13:35:00
7:55 AM,24.3,22.8,94,30.26,10.0,WSW,10.4,-,N/A,,Clear,250,2013-01-09 13:55:00
8:15 AM,24.3,22.6,94,30.28,10.0,WSW,4.6,-,N/A,,Clear,250,2013-01-09 14:15:00
8:35 AM,24.3,22.6,94,30.29,10.0,WSW,10.4,-,N/A,,Clear,250,2013-01-09 14:35:00
8:55 AM,24.4,22.5,92,30.30,10.0,West,12.7,-,N/A,,Clear,270,2013-01-09 14:55:00
9:15 AM,26.6,24.6,92,30.32,10.0,WSW,13.8,-,N/A,,Clear,240,2013-01-09 15:15:00
9:35 AM,28.8,26.1,90,30.35,10.0,SW,13.8,-,N/A,,Clear,230,2013-01-09 15:35:00
9:55 AM,32.0,28.9,88,30.40,10.0,WSW,18.4,-,N/A,,Clear,240,2013-01-09 15:55:00
10:15 AM,33.4,29.7,86,30.42,10.0,WSW,17.3,-,N/A,,Clear,240,2013-01-09 16:15:00
10:35 AM,34.7,30.7,85,30.42,10.0,WSW,13.8,-,N/A,,Clear,240,2013-01-09 16:35:00
10:55 AM,35.6,30.9,83,30.42,10.0,WSW,16.1,-,N/A,,Clear,240,2013-01-09 16:55:00
11:15 AM,36.5,31.1,81,30.42,10.0,West,12.7,-,N/A,,Clear,260,2013-01-09 17:15:00
11:35 AM,36.3,31.5,83,30.42,10.0,West,10.4,-,N/A,,Clear,260,2013-01-09 17:35:00
11:55 AM,36.7,32.0,83,30.41,10.0,West,8.1,-,N/A,,Clear,260,2013-01-09 17:55:00
12:15 PM,37.0,32.0,82,30.41,10.0,West,9.2,-,N/A,,Clear,280,2013-01-09 18:15:00
12:35 PM,36.7,32.0,83,30.39,10.0,WNW,3.5,-,N/A,,Clear,300,2013-01-09 18:35:00
12:55 PM,36.5,32.0,84,30.38,10.0,Calm,Calm,-,N/A,,Clear,0,2013-01-09 18:55:00
1:15 PM,37.6,31.6,79,30.39,10.0,Calm,Calm,-,N/A,,Clear,0,2013-01-09 19:15:00
1:35 PM,38.5,31.8,77,30.38,10.0,Calm,Calm,-,N/A,,Clear,0,2013-01-09 19:35:00
1:55 PM,39.0,32.9,79,30.38,10.0,Calm,Calm,-,N/A,,Clear,0,2013-01-09 19:55:00
2:15 PM,39.4,33.3,79,30.38,10.0,Calm,Calm,-,N/A,,Clear,0,2013-01-09 20:15:00
2:35 PM,39.7,32.0,74,30.38,10.0,Calm,Calm,-,N/A,,Clear,0,2013-01-09 20:35:00
2:55 PM,37.6,32.0,80,30.38,10.0,Calm,Calm,-,N/A,,Clear,0,2013-01-09 20:55:00
3:15 PM,38.8,31.1,74,30.38,10.0,Calm,Calm,-,N/A,,Clear,0,2013-01-09 21:15:00
3:35 PM,36.7,31.6,82,30.38,10.0,ESE,6.9,-,N/A,,Clear,120,2013-01-09 21:35:00
3:55 PM,35.6,31.6,85,30.37,10.0,SE,4.6,-,N/A,,Clear,130,2013-01-09 21:55:00
4:15 PM,34.7,31.1,87,30.37,10.0,ESE,4.6,-,N/A,,Clear,110,2013-01-09 22:15:00
4:35 PM,34.0,30.9,89,30.37,10.0,ESE,4.6,-,N/A,,Clear,110,2013-01-09 22:35:00
4:55 PM,33.1,30.2,89,30.37,10.0,SE,4.6,-,N/A,,Clear,130,2013-01-09 22:55:00
5:15 PM,33.8,30.7,89,30.37,10.0,SE,6.9,-,N/A,,Clear,140,2013-01-09 23:15:00
5:35 PM,31.6,28.9,90,30.37,10.0,SSE,4.6,-,N/A,,Clear,150,2013-01-09 23:35:00
5:55 PM,31.3,29.1,92,30.38,10.0,SSE,4.6,-,N/A,,Clear,150,2013-01-09 23:55:00
6:15 PM,30.4,28.6,93,30.38,10.0,SE,4.6,-,N/A,,Clear,140,2013-01-10 00:15:00
6:35 PM,30.0,28.4,94,30.39,10.0,SSE,5.8,-,N/A,,Clear,150,2013-01-10 00:35:00
6:55 PM,28.9,27.1,93,30.38,10.0,SSE,8.1,-,N/A,,Clear,150,2013-01-10 00:55:00
7:15 PM,30.2,28.4,93,30.38,10.0,SSE,6.9,-,N/A,,Clear,150,2013-01-10 01:15:00
7:35 PM,31.1,28.6,90,30.38,10.0,SSE,9.2,-,N/A,,Clear,160,2013-01-10 01:35:00
7:55 PM,29.3,27.0,91,30.38,10.0,SE,8.1,-,N/A,,Clear,140,2013-01-10 01:55:00
8:15 PM,30.2,28.0,92,30.38,10.0,SSE,8.1,-,N/A,,Clear,150,2013-01-10 02:15:00
8:35 PM,30.2,27.7,90,30.38,10.0,SSE,6.9,-,N/A,,Clear,160,2013-01-10 02:35:00
8:55 PM,30.9,28.4,90,30.37,10.0,SSE,6.9,-,N/A,,Clear,160,2013-01-10 02:55:00
9:15 PM,30.2,27.7,90,30.37,10.0,SSE,8.1,-,N/A,,Clear,150,2013-01-10 03:15:00
9:35 PM,28.9,26.8,92,30.37,10.0,SE,6.9,-,N/A,,Clear,140,2013-01-10 03:35:00
9:55 PM,29.8,27.9,92,30.37,10.0,SSE,6.9,-,N/A,,Clear,160,2013-01-10 03:55:00
10:15 PM,29.1,26.6,90,30.38,10.0,SSE,6.9,-,N/A,,Clear,160,2013-01-10 04:15:00
10:35 PM,30.4,26.6,86,30.38,10.0,SSE,6.9,-,N/A,,Clear,150,2013-01-10 04:35:00
10:55 PM,29.3,26.6,90,30.38,10.0,SSE,5.8,-,N/A,,Clear,150,2013-01-10 04:55:00
11:15 PM,28.2,25.7,90,30.38,10.0,SE,3.5,-,N/A,,Clear,140,2013-01-10 05:15:00
11:35 PM,29.1,26.4,90,30.38,10.0,SSE,4.6,-,N/A,,Clear,150,2013-01-10 05:35:00
11:55 PM,27.3,25.7,94,30.38,10.0,SSE,4.6,-,N/A,,Clear,160,2013-01-10 05:55:00